Wind_Speed
26 26 24 21 20 21 21 20 20 18 18 19 20 18 20 24 26 26 27 23 24 24 23 22 22 23 23 22 42 55 49 45 44 40 39 42 38 33 31 30 31 29 29
24 26 23 21 22 22 21 18 15 17 18 18 20 21 21 23 23 24 24 25 24 24 25 24 23 23 24 23 19 52 56 55 49 44 43 45 39 35 32 32 32 30 29
25 23 22 22 23 23 17 14 16 17 17 20 21 22 23 23 25 25 25 24 28 27 26 24 23 22 23 23 21 36 59 57 54 48 47 47 42 37 34 34 32 31 29
26 22 23 23 24 17 14 15 18 20 19 21 21 24 24 26 26 28 27 23 21 25 27 22 20 19 23 23 19 26 49 58 51 50 50 46 42 39 36 35 33 32 31
25 22 23 24 22 15 16 18 22 22 20 22 23 26 26 28 29 25 23 18 22 29 24 23 18 18 20 24 18 22 38 62 55 51 49 47 43 40 37 37 34 33 32
23 23 25 26 17 17 18 21 24 22 21 22 25 25 28 28 23 21 14 22 30 17 16 18 19 20 19 30 20 28 52 55 58 52 51 48 44 41 39 38 36 34 32
22 22 25 23 18 18 21 20 23 21 20 23 22 25 21 19 18 8 29 9 14 14 11 14 17 19 19 31 18 31 43 49 55 53 51 48 46 42 42 39 37 35 33
23 24 24 23 20 23 21 24 23 21 20 21 14 21 6 11 2 34 13 15 9 12 14 18 17 17 20 30 20 41 60 59 54 52 52 50 46 43 43 41 38 35 33
27 26 24 22 24 24 22 21 23 22 21 19 16 10 4 3 11 6 22 8 18 10 13 17 18 18 22 29 28 45 46 60 55 53 53 51 47 44 44 42 39 37 34
30 27 25 25 25 26 21 22 22 24 21 18 19 6 17 17 3 6 6 21 11 20 15 17 16 19 22 28 27 48 40 51 57 54 53 53 48 45 44 42 40 38 34
31 27 26 27 26 27 24 24 27 24 23 20 18 18 19 13 16 4 8 7 19 10 9 13 15 22 25 30 24 49 50 26 59 55 53 53 48 46 43 43 41 38 35
31 29 27 27 27 27 27 27 27 24 22 22 21 19 16 8 8 7 5 9 10 13 9 13 18 19 24 22 37 52 39 35 59 54 55 54 48 47 43 44 41 39 35
32 30 27 28 28 28 28 28 27 24 25 24 23 21 21 19 18 17 13 6 4 6 4 13 18 21 26 19 48 53 31 65 61 56 56 55 49 46 45 43 42 39 36
29 25 26 27 28 29 29 28 26 26 26 25 25 25 24 22 20 17 13 4 4 5 5 5 19 23 24 37 39 31 23 36 61 58 57 55 51 48 46 43 41 39 36
27 23 26 28 30 32 28 29 27 26 29 27 27 27 25 23 22 16 9 10 5 3 3 3 8 24 27 44 43 36 24 49 60 58 55 54 52 50 47 44 41 39 37
27 25 27 29 32 30 30 29 28 28 29 28 27 28 28 24 20 14 6 3 9 6 1 2 5 29 37 40 45 39 28 45 58 57 54 53 51 49 47 45 42 39 36
27 26 27 30 31 31 33 32 30 30 30 30 31 30 29 29 21 17 11 6 1 3 1 6 15 33 35 38 37 35 28 21 55 56 54 51 49 46 46 44 42 39 37
26 27 28 30 31 32 32 32 33 34 32 32 33 32 32 30 23 23 21 16 13 9 5 8 18 23 30 35 29 33 27 33 53 56 52 49 45 43 43 43 40 40 36
26 27 30 31 30 31 31 32 34 34 33 34 32 33 35 35 34 28 25 24 21 18 19 14 9 22 32 28 27 29 35 45 49 54 50 46 43 42 40 39 38 37 36
26 28 29 29 29 31 31 33 34 34 34 35 36 36 37 38 37 36 33 28 24 23 22 21 18 24 27 24 26 26 31 42 43 50 48 45 42 39 37 35 34 34 32
24 27 30 31 30 33 33 32 33 33 34 35 36 36 39 39 39 41 39 33 28 24 22 20 16 13 15 13 15 15 29 34 36 40 38 42 42 38 34 31 31 30 30
25 28 31 32 28 33 34 29 30 32 34 36 39 41 40 43 40 38 41 49 47 31 28 20 14 10 10 10 12 20 30 31 10 31 32 30 39 38 36 33 31 29 27
26 30 32 34 30 34 35 31 28 29 32 37 42 41 40 44 41 36 38 43 49 48 42 30 25 17 11 6 12 18 21 25 16 27 35 24 33 24 31 31 29 28 26
27 30 31 34 34 33 35 32 28 30 32 36 40 46 42 45 41 36 35 40 41 48 45 41 38 30 17 9 18 22 31 36 34 35 25 14 24 24 23 24 25 26 26
26 28 30 33 36 34 35 36 37 32 31 34 37 42 44 43 44 39 39 38 40 41 39 42 49 43 25 24 28 39 31 35 18 15 23 25 20 31 24 17 13 23 26
23 27 30 33 31 35 34 35 37 34 33 33 36 37 44 46 45 45 42 36 40 37 34 42 51 52 51 38 34 30 25 27 22 11 15 11 23 16 8 18 17 12 10
Wind_Direction
350 349 347 345 347 347 344 340 340 336 331 326 323 319 312 312 309 307 303 294 287 285 281 274 272 270 277 285 196 184 196 191 181 176 171 166 165 170 166 164 158 155 151
351 349 348 349 346 347 342 341 334 332 327 325 321 316 310 307 300 297 295 293 288 284 279 274 269 268 272 275 297 197 189 182 185 178 172 167 164 168 166 164 161 158 154
353 348 350 349 347 344 339 334 332 333 331 325 319 316 310 303 297 292 290 287 291 289 279 273 268 265 265 267 272 197 177 179 179 175 170 168 161 169 168 165 163 159 155
355 355 352 349 346 343 338 338 339 332 322 322 316 317 312 303 296 291 294 288 288 296 292 274 265 260 256 257 265 204 180 174 172 173 169 166 161 169 168 165 164 158 155
356 355 352 349 348 339 340 342 337 333 327 324 320 313 307 301 300 301 295 287 280 296 284 282 263 254 248 246 253 198 183 168 174 173 170 165 161 167 168 167 165 161 158
357 353 353 352 347 344 344 343 342 337 331 323 325 313 307 307 302 300 288 291 275 287 283 281 268 244 237 229 223 182 180 185 172 173 169 165 160 165 168 166 166 162 161
358 357 356 355 350 348 343 342 338 333 332 335 326 323 304 309 298 271 314 291 303 279 276 269 264 243 223 220 204 180 180 170 170 172 168 165 161 164 168 168 166 163 161
4 1 360 2 354 349 347 346 340 336 327 332 327 314 322 329 317 318 307 298 281 304 257 265 261 237 210 214 192 184 190 177 167 168 168 166 161 165 168 169 167 165 163
10 7 6 3 1 358 350 341 339 336 322 325 330 305 328 309 323 316 311 323 306 298 292 258 245 231 198 206 200 175 178 169 167 169 166 165 161 164 168 170 168 166 164
13 11 8 5 3 0 347 341 336 328 332 322 323 299 306 292 307 313 317 316 318 307 285 251 233 214 197 198 190 182 170 160 167 169 167 166 163 164 168 170 168 167 166
10 9 8 5 3 1 353 346 340 337 331 317 317 315 309 297 278 276 304 318 321 320 284 243 210 204 196 192 186 175 188 187 168 170 168 166 163 165 166 170 170 168 169
2 7 6 5 2 2 354 346 342 338 334 331 322 314 303 294 284 279 281 296 286 294 273 225 204 202 197 190 182 180 200 189 169 170 171 168 163 164 166 171 171 170 171
359 1 1 0 3 0 358 347 346 343 341 331 321 312 309 295 284 271 267 277 273 295 276 202 205 198 194 190 173 177 171 179 173 171 173 169 164 163 167 170 172 171 173
356 359 1 360 360 3 356 348 346 344 342 334 327 323 313 305 299 284 255 260 284 235 246 138 200 203 190 151 164 170 171 169 169 171 172 169 167 167 167 168 172 173 174
1 5 6 4 5 3 352 354 349 344 341 338 334 330 323 320 319 316 288 251 232 263 108 106 150 183 151 148 159 149 150 172 172 172 172 169 169 169 168 168 171 174 175
10 10 9 10 12 2 1 358 352 349 346 344 339 335 336 340 344 354 355 258 227 247 113 49 123 150 142 148 163 171 154 169 170 172 172 169 171 171 171 169 171 174 177
15 14 13 15 9 2 2 0 355 353 351 348 350 349 352 357 357 12 28 51 343 209 174 62 108 129 135 136 149 168 167 163 171 174 172 170 171 171 173 173 172 173 177
18 19 18 19 9 5 3 360 359 356 355 354 355 355 1 6 17 25 35 33 49 51 94 99 100 120 117 135 143 163 174 184 171 172 170 170 169 171 173 176 174 176 176
21 22 22 19 6 5 5 3 6 358 1 2 1 4 7 15 20 25 32 34 48 71 89 96 86 106 120 132 134 145 155 156 165 173 168 168 169 172 173 175 176 178 182
23 25 24 19 10 9 9 7 6 3 5 8 13 15 17 23 26 29 32 35 53 67 80 88 87 88 110 119 126 119 138 149 156 167 168 169 171 172 172 173 177 179 180
27 28 26 24 16 15 11 11 8 8 10 13 17 21 25 29 36 39 40 39 50 57 59 66 69 76 82 95 112 119 134 137 147 158 160 171 172 172 174 175 177 180 183
30 31 31 29 20 16 11 18 16 13 17 19 20 22 26 30 37 41 47 52 58 55 52 62 57 66 69 93 125 135 135 139 136 154 148 157 174 175 177 182 181 182 184
34 34 33 33 26 19 15 19 21 22 22 26 25 24 28 30 37 41 47 55 57 59 64 65 61 46 51 86 159 141 146 137 114 137 145 141 174 163 184 188 188 187 188
36 35 33 34 31 23 20 25 29 28 29 31 31 29 30 31 33 42 49 54 55 55 55 60 61 62 77 121 161 158 140 123 124 137 141 124 146 123 167 187 199 199 201
40 39 34 35 31 28 22 26 40 33 31 35 33 33 34 35 40 45 51 51 53 51 55 60 65 75 88 120 124 140 131 127 113 100 132 123 114 108 122 123 166 204 209
44 44 42 39 34 30 25 27 38 37 34 32 34 33 33 39 42 47 51 50 52 42 47 55 59 60 65 76 90 114 130 119 118 101 106 114 130 123 84 70 95 123 174
Height
818 815 810 806 802 797 793 788 783 779 775 771 768 766 762 757 753 751 748 747 746 746 746 747 748 749 749 748 744 748 764 774 780 786 794 801 807 815 822 826 829 834 838
817 813 808 804 799 794 789 784 781 778 774 770 766 762 759 755 751 748 746 742 741 740 740 741 742 744 743 742 740 744 753 765 776 782 791 798 805 815 821 826 830 835 838
816 811 806 802 797 791 786 783 780 776 771 767 764 759 754 749 746 743 741 738 735 733 734 735 736 737 736 733 730 739 742 757 768 778 787 795 803 814 820 825 831 836 839
814 809 805 800 794 789 786 782 777 772 767 763 758 753 748 743 739 736 733 731 730 728 728 729 730 731 730 729 732 726 747 755 768 777 785 791 800 811 819 825 832 836 840
813 809 804 799 792 788 784 779 774 768 763 758 753 747 742 736 732 730 728 726 725 724 723 723 724 723 722 724 729 736 716 742 763 776 783 788 796 809 817 825 832 836 841
813 808 803 796 790 786 781 776 771 766 761 756 750 742 736 729 726 724 724 723 721 720 719 719 718 716 716 720 725 731 740 752 759 772 780 785 795 807 817 825 832 836 842
813 807 801 794 790 784 779 774 769 764 759 755 747 739 729 724 720 721 719 716 716 716 715 715 713 711 712 714 719 726 738 739 758 768 775 784 794 805 816 825 831 837 842
812 806 799 793 788 782 777 773 768 763 759 755 750 741 728 721 718 717 714 713 712 712 711 711 710 708 709 712 714 724 727 739 751 763 774 784 793 805 815 824 830 837 843
810 804 798 792 786 781 777 772 768 764 758 753 751 748 737 729 723 711 710 710 708 706 706 705 706 704 709 711 716 720 729 736 748 763 775 783 792 805 814 823 829 836 843
810 803 797 791 785 780 776 772 767 762 758 752 747 744 742 737 730 714 708 705 703 700 699 698 700 701 704 706 714 718 723 737 749 763 771 782 793 804 814 822 829 836 843
810 803 796 790 784 779 775 770 765 760 756 750 745 740 736 732 729 723 711 703 698 694 693 694 697 700 702 704 707 721 727 741 748 759 770 782 792 802 812 822 829 836 843
809 802 796 790 785 779 773 768 763 757 752 747 742 737 733 729 725 721 714 708 703 692 689 691 693 695 699 701 706 720 729 740 747 756 771 782 792 800 811 822 829 835 843
808 801 796 791 784 779 773 767 760 755 749 743 737 732 727 722 718 714 712 706 702 692 686 687 689 693 697 701 706 719 731 741 747 756 772 781 789 799 811 821 828 836 844
809 803 797 792 785 778 772 765 759 753 746 739 733 726 721 715 710 707 705 703 700 693 685 684 686 689 693 695 705 716 720 738 749 758 771 779 788 800 810 819 828 836 844
809 804 798 792 785 778 772 765 757 751 744 737 728 721 715 709 703 699 697 697 698 688 681 685 685 690 691 699 710 720 733 742 751 759 770 779 789 800 809 818 828 836 844
810 805 799 793 786 780 772 764 757 751 743 734 727 719 711 704 697 693 691 690 691 690 680 683 684 689 695 705 713 725 737 746 754 760 770 779 790 800 809 818 828 836 844
812 807 802 795 788 782 774 765 757 751 743 734 724 715 709 701 695 690 687 687 685 684 681 682 684 690 701 707 717 728 737 744 756 762 772 781 791 799 810 820 827 835 843
816 810 804 797 791 785 777 768 758 751 743 733 725 716 709 701 695 688 685 684 685 680 678 682 690 697 702 710 720 729 736 747 758 765 774 784 792 802 812 820 827 835 842
818 813 807 800 795 789 781 772 763 754 747 737 729 720 711 703 693 691 688 684 685 683 682 687 691 698 706 716 724 727 735 744 759 769 778 786 795 805 813 820 827 835 843
821 816 810 804 799 793 786 778 768 758 751 741 732 725 719 711 703 696 690 689 690 690 691 693 698 702 710 718 723 725 734 745 760 773 782 790 800 808 815 821 829 836 843
824 819 813 807 803 797 791 784 773 765 756 748 739 732 725 721 713 708 702 699 696 696 698 699 703 709 717 722 726 729 737 749 765 773 783 794 803 812 819 826 832 838 844
828 823 817 811 808 803 795 790 782 771 763 755 746 738 733 727 723 721 717 711 706 704 707 710 718 722 726 728 731 734 740 751 765 775 785 797 804 812 819 827 833 839 846
833 827 822 816 812 809 800 793 787 779 771 763 756 749 743 737 732 729 727 724 722 720 721 723 725 730 729 732 734 739 746 754 761 772 784 798 807 815 823 830 836 842 848
838 833 828 822 817 813 808 800 792 785 779 773 767 761 754 749 745 739 738 734 733 733 733 732 733 736 737 735 736 741 746 754 767 776 786 798 808 815 823 830 838 844 851
844 839 834 828 824 819 814 806 797 791 786 782 778 774 769 764 758 751 746 744 744 745 748 749 747 743 741 738 738 743 752 757 770 779 787 797 807 814 823 830 836 842 849
851 846 841 835 832 826 821 815 808 801 794 790 787 785 780 775 770 763 758 758 753 759 759 753 749 748 745 745 744 747 753 760 771 782 789 798 806 812 827 837 839 842 847